Time,TemperatureF,DewpointF,PressureIn,WindDirection,WindDirectionDegrees,WindSpeedMPH,WindSpeedGustMPH,Humidity,HourlyPrecipIn,Conditions,Clouds,dailyrainin,SoftwareType,DateUTC
2013-06-02 00:01:00,74.1,65.7,30.04,ESE,117,2.0,2.0,75,0.00,,,0.00,meteohub,2013-06-02 04:01:00,
2013-06-02 00:03:00,74.1,65.7,30.04,SSE,147,0.0,2.0,75,0.00,,,0.00,meteohub,2013-06-02 04:03:00,
2013-06-02 00:04:00,74.1,65.7,30.04,SSE,147,0.0,2.0,75,0.00,,,0.00,meteohub,2013-06-02 04:04:00,
2013-06-02 00:05:00,74.1,65.7,30.04,SE,128,0.0,2.0,75,0.00,,,0.00,meteohub,2013-06-02 04:05:00,
2013-06-02 00:10:00,73.9,65.5,30.04,ESE,121,0.0,2.0,75,0.00,,,0.00,meteohub,2013-06-02 04:10:00,
2013-06-02 00:15:00,73.9,65.5,30.04,NNE,14,0.0,2.0,75,0.00,,,0.00,meteohub,2013-06-02 04:15:00,
2013-06-02 00:20:00,73.8,65.7,30.04,SE,125,0.0,2.0,76,0.00,,,0.00,meteohub,2013-06-02 04:20:00,
2013-06-02 00:26:00,73.8,65.7,30.03,ESE,108,0.0,3.0,76,0.00,,,0.00,meteohub,2013-06-02 04:26:00,
2013-06-02 00:31:00,73.6,65.5,30.03,ESE,115,0.0,3.0,76,0.00,,,0.00,meteohub,2013-06-02 04:31:00,
2013-06-02 00:36:00,73.6,65.5,30.03,SE,132,0.0,2.0,76,0.00,,,0.00,meteohub,2013-06-02 04:36:00,
2013-06-02 00:41:00,73.6,65.5,30.04,SE,132,0.0,2.0,76,0.00,,,0.00,meteohub,2013-06-02 04:41:00,
2013-06-02 00:46:00,73.4,65.3,30.04,ESE,111,0.0,2.0,76,0.00,,,0.00,meteohub,2013-06-02 04:46:00,
2013-06-02 00:52:00,73.2,65.1,30.03,ESE,113,0.0,2.0,76,0.00,,,0.00,meteohub,2013-06-02 04:52:00,
2013-06-02 00:57:00,73.2,65.1,30.03,ESE,113,0.0,2.0,76,0.00,,,0.00,meteohub,2013-06-02 04:57:00,
2013-06-02 01:02:00,73.0,65.5,30.03,ESE,107,0.0,2.0,77,0.00,,,0.00,meteohub,2013-06-02 05:02:00,
2013-06-02 01:07:00,73.0,65.5,30.03,SE,130,0.0,2.0,77,0.00,,,0.00,meteohub,2013-06-02 05:07:00,
2013-06-02 01:12:00,72.9,65.3,30.03,SE,131,0.0,2.0,77,0.00,,,0.00,meteohub,2013-06-02 05:12:00,
2013-06-02 01:17:00,72.9,65.3,30.03,South,176,0.0,2.0,77,0.00,,,0.00,meteohub,2013-06-02 05:17:00,
2013-06-02 01:22:00,72.7,65.1,30.03,South,173,0.0,2.0,77,0.00,,,0.00,meteohub,2013-06-02 05:22:00,
2013-06-02 01:27:00,72.7,65.1,30.02,East,94,0.0,1.0,77,0.00,,,0.00,meteohub,2013-06-02 05:27:00,
2013-06-02 01:32:00,72.7,65.1,30.03,East,94,0.0,2.0,77,0.00,,,0.00,meteohub,2013-06-02 05:32:00,
2013-06-02 01:37:00,72.5,64.9,30.03,SW,225,0.0,2.0,77,0.00,,,0.00,meteohub,2013-06-02 05:37:00,
2013-06-02 01:42:00,72.3,64.8,30.03,ENE,73,0.0,2.0,77,0.00,,,0.00,meteohub,2013-06-02 05:42:00,
2013-06-02 01:47:00,72.3,64.8,30.02,ENE,76,0.0,2.0,77,0.00,,,0.00,meteohub,2013-06-02 05:47:00,
2013-06-02 01:52:00,72.1,64.6,30.02,East,82,0.0,2.0,77,0.00,,,0.00,meteohub,2013-06-02 05:52:00,
2013-06-02 01:57:00,72.1,64.6,30.02,SE,134,0.0,2.0,77,0.00,,,0.00,meteohub,2013-06-02 05:57:00,
2013-06-02 02:02:00,72.1,64.6,30.02,East,96,0.0,0.0,77,0.00,,,0.00,meteohub,2013-06-02 06:02:00,
2013-06-02 02:07:00,72.0,64.4,30.02,ESE,104,0.0,0.0,77,0.00,,,0.00,meteohub,2013-06-02 06:07:00,
2013-06-02 02:12:00,72.0,64.8,30.01,ESE,114,0.0,1.0,78,0.00,,,0.00,meteohub,2013-06-02 06:12:00,
2013-06-02 02:17:00,71.8,64.6,30.01,ESE,110,0.0,4.0,78,0.00,,,0.00,meteohub,2013-06-02 06:17:00,
2013-06-02 02:22:00,71.8,64.6,30.01,ESE,110,0.0,4.0,78,0.00,,,0.00,meteohub,2013-06-02 06:22:00,
2013-06-02 02:27:00,71.6,64.4,30.01,ESE,110,0.0,1.0,78,0.00,,,0.00,meteohub,2013-06-02 06:27:00,
2013-06-02 02:32:00,71.4,64.2,30.01,ESE,107,0.0,1.0,78,0.00,,,0.00,meteohub,2013-06-02 06:32:00,
2013-06-02 02:37:00,71.4,64.2,30.01,ESE,107,0.0,1.0,78,0.00,,,0.00,meteohub,2013-06-02 06:37:00,
2013-06-02 02:42:00,71.2,64.4,30.00,ESE,107,0.0,1.0,79,0.00,,,0.00,meteohub,2013-06-02 06:42:00,
2013-06-02 02:47:00,71.2,64.4,29.99,ESE,107,0.0,1.0,79,0.00,,,0.00,meteohub,2013-06-02 06:47:00,
2013-06-02 02:52:00,71.2,64.4,30.00,ESE,107,0.0,1.0,79,0.00,,,0.00,meteohub,2013-06-02 06:52:00,
2013-06-02 02:57:00,71.1,64.6,29.99,ESE,107,0.0,1.0,80,0.00,,,0.00,meteohub,2013-06-02 06:57:00,
2013-06-02 03:02:00,71.1,64.6,29.99,ESE,107,0.0,1.0,80,0.00,,,0.00,meteohub,2013-06-02 07:02:00,
2013-06-02 03:07:00,70.9,64.4,29.99,ESE,115,0.0,0.0,80,0.00,,,0.00,meteohub,2013-06-02 07:07:00,
2013-06-02 03:12:00,70.9,64.4,29.99,ESE,115,0.0,0.0,80,0.00,,,0.00,meteohub,2013-06-02 07:12:00,
2013-06-02 03:17:00,70.7,64.6,29.99,ESE,115,0.0,0.0,81,0.00,,,0.00,meteohub,2013-06-02 07:17:00,
2013-06-02 03:22:00,70.5,64.4,29.98,ESE,115,0.0,0.0,81,0.00,,,0.00,meteohub,2013-06-02 07:22:00,
2013-06-02 03:27:00,70.5,64.4,29.98,ESE,115,0.0,0.0,81,0.00,,,0.00,meteohub,2013-06-02 07:27:00,
2013-06-02 03:32:00,70.3,64.2,29.99,ESE,115,0.0,0.0,81,0.00,,,0.00,meteohub,2013-06-02 07:32:00,
2013-06-02 03:37:00,70.3,64.2,29.98,ESE,115,0.0,0.0,81,0.00,,,0.00,meteohub,2013-06-02 07:37:00,
2013-06-02 03:42:00,70.2,64.4,29.98,SSW,205,0.0,0.0,82,0.00,,,0.00,meteohub,2013-06-02 07:42:00,
2013-06-02 03:47:00,70.2,64.4,29.99,SW,230,0.0,1.0,82,0.00,,,0.00,meteohub,2013-06-02 07:47:00,
2013-06-02 03:52:00,70.0,64.6,29.99,SW,230,0.0,1.0,83,0.00,,,0.00,meteohub,2013-06-02 07:52:00,
2013-06-02 03:57:00,70.0,64.6,29.98,SSW,198,0.0,1.0,83,0.00,,,0.00,meteohub,2013-06-02 07:57:00,
2013-06-02 04:02:00,69.8,64.4,29.98,South,178,0.0,0.0,83,0.00,,,0.00,meteohub,2013-06-02 08:02:00,
2013-06-02 04:07:00,69.6,64.6,29.99,WSW,245,0.0,1.0,84,0.00,,,0.00,meteohub,2013-06-02 08:07:00,
2013-06-02 04:12:00,69.4,64.4,29.98,West,276,0.0,3.0,84,0.00,,,0.00,meteohub,2013-06-02 08:12:00,
2013-06-02 04:17:00,69.4,64.4,29.98,North,350,0.0,3.0,84,0.00,,,0.00,meteohub,2013-06-02 08:17:00,
2013-06-02 04:22:00,69.4,64.8,29.98,ENE,59,0.0,3.0,85,0.00,,,0.00,meteohub,2013-06-02 08:22:00,
2013-06-02 04:27:00,69.3,64.6,29.98,ENE,60,0.0,1.0,85,0.00,,,0.00,meteohub,2013-06-02 08:27:00,
2013-06-02 04:32:00,69.3,64.6,29.97,ENE,60,0.0,1.0,85,0.00,,,0.00,meteohub,2013-06-02 08:32:00,
2013-06-02 04:37:00,69.3,64.6,29.98,ENE,78,0.0,1.0,85,0.00,,,0.00,meteohub,2013-06-02 08:37:00,
2013-06-02 04:42:00,69.1,64.8,29.97,East,98,0.0,1.0,86,0.00,,,0.00,meteohub,2013-06-02 08:42:00,
2013-06-02 04:47:00,69.1,64.8,29.97,ESE,117,0.0,1.0,86,0.00,,,0.00,meteohub,2013-06-02 08:47:00,
2013-06-02 04:52:00,68.9,64.6,29.97,ESE,117,0.0,2.0,86,0.00,,,0.00,meteohub,2013-06-02 08:52:00,
2013-06-02 04:57:00,68.7,64.8,29.97,ESE,116,2.0,2.0,87,0.00,,,0.00,meteohub,2013-06-02 08:57:00,
2013-06-02 05:02:00,68.7,64.8,29.97,ESE,116,0.0,3.0,87,0.00,,,0.00,meteohub,2013-06-02 09:02:00,
2013-06-02 05:07:00,68.5,64.6,29.97,SSW,200,0.0,3.0,87,0.00,,,0.00,meteohub,2013-06-02 09:07:00,
2013-06-02 05:12:00,68.5,64.6,29.97,SSW,200,0.0,3.0,87,0.00,,,0.00,meteohub,2013-06-02 09:12:00,
2013-06-02 05:17:00,68.4,64.4,29.97,SSW,197,0.0,1.0,87,0.00,,,0.00,meteohub,2013-06-02 09:17:00,
2013-06-02 05:22:00,68.4,64.6,29.98,South,180,0.0,2.0,88,0.00,,,0.00,meteohub,2013-06-02 09:22:00,
2013-06-02 05:27:00,68.4,64.6,29.98,South,180,0.0,2.0,88,0.00,,,0.00,meteohub,2013-06-02 09:27:00,
2013-06-02 05:32:00,68.2,64.4,29.99,WSW,247,0.0,2.0,88,0.00,,,0.00,meteohub,2013-06-02 09:32:00,
2013-06-02 05:37:00,68.2,64.8,29.99,WNW,300,0.0,2.0,89,0.00,,,0.00,meteohub,2013-06-02 09:37:00,
2013-06-02 05:42:00,68.0,64.6,29.99,WNW,300,0.0,2.0,89,0.00,,,0.00,meteohub,2013-06-02 09:42:00,
2013-06-02 05:47:00,67.8,64.4,29.99,WNW,300,0.0,0.0,89,0.00,,,0.00,meteohub,2013-06-02 09:47:00,
2013-06-02 05:52:00,67.8,64.8,29.99,West,266,0.0,1.0,90,0.00,,,0.00,meteohub,2013-06-02 09:52:00,
2013-06-02 05:57:00,67.8,64.8,29.99,WSW,252,0.0,3.0,90,0.00,,,0.00,meteohub,2013-06-02 09:57:00,
2013-06-02 06:02:00,68.0,64.9,30.00,West,273,2.0,3.0,90,0.00,,,0.00,meteohub,2013-06-02 10:02:00,
2013-06-02 06:07:00,68.2,65.1,29.99,West,275,0.0,4.0,90,0.00,,,0.00,meteohub,2013-06-02 10:07:00,
2013-06-02 06:12:00,68.2,65.1,30.00,WSW,243,2.0,4.0,90,0.00,,,0.00,meteohub,2013-06-02 10:12:00,
2013-06-02 06:17:00,68.2,65.1,30.00,SW,228,0.0,4.0,90,0.00,,,0.00,meteohub,2013-06-02 10:17:00,
2013-06-02 06:22:00,68.4,65.3,30.00,NW,323,1.0,4.0,90,0.00,,,0.00,meteohub,2013-06-02 10:22:00,
2013-06-02 06:27:00,68.4,65.3,30.00,WNW,295,0.0,4.0,90,0.00,,,0.00,meteohub,2013-06-02 10:27:00,
2013-06-02 06:32:00,68.4,65.3,30.00,WSW,251,1.0,6.0,90,0.00,,,0.00,meteohub,2013-06-02 10:32:00,
2013-06-02 06:37:00,68.4,65.3,30.00,West,277,0.0,6.0,90,0.00,,,0.00,meteohub,2013-06-02 10:37:00,
2013-06-02 06:42:00,68.5,65.5,30.00,WSW,248,3.0,3.0,90,0.00,,,0.00,meteohub,2013-06-02 10:42:00,
2013-06-02 06:47:00,68.5,65.5,30.00,South,177,0.0,4.0,90,0.00,,,0.00,meteohub,2013-06-02 10:47:00,
2013-06-02 06:52:00,68.5,65.5,30.00,WSW,240,4.0,4.0,90,0.00,,,0.00,meteohub,2013-06-02 10:52:00,
2013-06-02 06:57:00,68.5,65.5,30.00,WSW,252,0.0,5.0,90,0.00,,,0.00,meteohub,2013-06-02 10:57:00,
2013-06-02 07:02:00,68.7,65.7,30.00,SSW,202,0.0,5.0,90,0.00,,,0.00,meteohub,2013-06-02 11:02:00,
2013-06-02 07:07:00,68.7,65.7,30.00,SSW,206,2.0,5.0,90,0.00,,,0.00,meteohub,2013-06-02 11:07:00,
2013-06-02 07:12:00,68.7,65.3,30.00,South,190,0.0,4.0,89,0.00,,,0.00,meteohub,2013-06-02 11:12:00,
2013-06-02 07:17:00,68.7,65.7,30.00,SSE,161,0.0,4.0,90,0.00,,,0.00,meteohub,2013-06-02 11:17:00,
2013-06-02 07:22:00,68.9,65.5,30.00,SSE,164,0.0,4.0,89,0.00,,,0.00,meteohub,2013-06-02 11:22:00,
2013-06-02 07:27:00,69.1,66.0,29.99,SSW,202,1.0,4.0,90,0.00,,,0.00,meteohub,2013-06-02 11:27:00,
2013-06-02 07:32:00,69.1,65.7,29.99,South,182,0.0,3.0,89,0.00,,,0.00,meteohub,2013-06-02 11:32:00,
2013-06-02 07:37:00,69.1,65.7,30.00,SW,233,0.0,3.0,89,0.00,,,0.00,meteohub,2013-06-02 11:37:00,
2013-06-02 07:42:00,69.3,65.8,30.00,SW,223,0.0,3.0,89,0.00,,,0.00,meteohub,2013-06-02 11:42:00,
2013-06-02 07:47:00,69.3,65.8,30.00,SW,219,1.0,3.0,89,0.00,,,0.00,meteohub,2013-06-02 11:47:00,
2013-06-02 07:52:00,69.4,66.0,30.00,NW,320,0.0,3.0,89,0.00,,,0.00,meteohub,2013-06-02 11:52:00,
2013-06-02 07:57:00,69.4,66.0,30.01,South,182,0.0,3.0,89,0.00,,,0.00,meteohub,2013-06-02 11:57:00,
2013-06-02 08:02:00,69.6,66.2,30.01,West,259,0.0,2.0,89,0.00,,,0.00,meteohub,2013-06-02 12:02:00,
2013-06-02 08:07:00,69.8,66.4,30.01,SW,235,0.0,2.0,89,0.00,,,0.00,meteohub,2013-06-02 12:07:00,
2013-06-02 08:12:00,70.0,66.2,30.01,WSW,251,1.0,4.0,88,0.00,,,0.00,meteohub,2013-06-02 12:12:00,
2013-06-02 08:17:00,70.2,66.4,30.01,SSW,205,0.0,4.0,88,0.00,,,0.00,meteohub,2013-06-02 12:17:00,
2013-06-02 08:22:00,70.2,66.0,30.01,SW,232,1.0,5.0,87,0.00,,,0.00,meteohub,2013-06-02 12:22:00,
2013-06-02 08:27:00,70.3,66.2,30.01,SW,223,0.0,5.0,87,0.00,,,0.00,meteohub,2013-06-02 12:27:00,
2013-06-02 08:32:00,70.5,66.4,30.01,SSW,197,1.0,5.0,87,0.00,,,0.00,meteohub,2013-06-02 12:32:00,
2013-06-02 08:37:00,70.5,66.2,30.01,WSW,248,0.0,4.0,86,0.00,,,0.00,meteohub,2013-06-02 12:37:00,
2013-06-02 08:42:00,70.7,66.4,30.01,SW,235,0.0,4.0,86,0.00,,,0.00,meteohub,2013-06-02 12:42:00,
2013-06-02 08:47:00,70.9,66.6,30.01,WSW,245,0.0,4.0,86,0.00,,,0.00,meteohub,2013-06-02 12:47:00,
2013-06-02 08:52:00,71.1,66.0,30.01,West,278,0.0,4.0,84,0.00,,,0.00,meteohub,2013-06-02 12:52:00,
2013-06-02 08:57:00,71.2,66.2,30.01,WSW,240,1.0,4.0,84,0.00,,,0.00,meteohub,2013-06-02 12:57:00,
2013-06-02 09:02:00,71.4,66.0,30.01,WNW,301,3.0,7.0,83,0.00,,,0.00,meteohub,2013-06-02 13:02:00,
2013-06-02 09:07:00,71.8,66.4,30.00,SW,224,0.0,7.0,83,0.00,,,0.00,meteohub,2013-06-02 13:07:00,
2013-06-02 09:12:00,72.0,66.6,30.00,WSW,241,0.0,5.0,83,0.00,,,0.00,meteohub,2013-06-02 13:12:00,
2013-06-02 09:17:00,72.1,66.4,30.00,NW,317,1.0,5.0,82,0.00,,,0.00,meteohub,2013-06-02 13:17:00,
2013-06-02 09:22:00,72.3,66.6,30.00,NW,317,1.0,7.0,82,0.00,,,0.00,meteohub,2013-06-02 13:22:00,
2013-06-02 09:27:00,72.5,66.4,30.00,West,268,0.0,7.0,81,0.00,,,0.00,meteohub,2013-06-02 13:27:00,
2013-06-02 09:32:00,72.7,66.6,30.00,SSW,194,2.0,7.0,81,0.00,,,0.00,meteohub,2013-06-02 13:32:00,
2013-06-02 09:37:00,72.9,66.7,30.00,WSW,247,0.0,4.0,81,0.00,,,0.00,meteohub,2013-06-02 13:37:00,
2013-06-02 09:42:00,73.0,66.9,30.00,South,173,0.0,3.0,81,0.00,,,0.00,meteohub,2013-06-02 13:42:00,
2013-06-02 09:47:00,73.2,66.0,30.00,SSW,203,1.0,3.0,78,0.00,,,0.00,meteohub,2013-06-02 13:47:00,
2013-06-02 09:52:00,73.4,66.2,29.99,SSW,207,1.0,5.0,78,0.00,,,0.00,meteohub,2013-06-02 13:52:00,
2013-06-02 09:57:00,73.6,66.4,29.99,WNW,285,0.0,5.0,78,0.00,,,0.00,meteohub,2013-06-02 13:57:00,
2013-06-02 10:02:00,73.9,66.6,29.99,WSW,246,0.0,5.0,78,0.00,,,0.00,meteohub,2013-06-02 14:02:00,
2013-06-02 10:07:00,73.9,66.6,29.99,SSW,209,0.0,3.0,78,0.00,,,0.00,meteohub,2013-06-02 14:07:00,
2013-06-02 10:12:00,74.3,66.6,29.99,SW,217,1.0,3.0,77,0.00,,,0.00,meteohub,2013-06-02 14:12:00,
2013-06-02 10:17:00,74.5,66.7,29.99,SSW,199,0.0,3.0,77,0.00,,,0.00,meteohub,2013-06-02 14:17:00,
2013-06-02 10:22:00,74.7,66.6,29.99,WSW,240,0.0,3.0,76,0.00,,,0.00,meteohub,2013-06-02 14:22:00,
2013-06-02 10:27:00,74.8,66.7,29.99,SW,233,0.0,5.0,76,0.00,,,0.00,meteohub,2013-06-02 14:27:00,
2013-06-02 10:32:00,75.0,66.6,29.99,SSW,192,1.0,5.0,75,0.00,,,0.00,meteohub,2013-06-02 14:32:00,
2013-06-02 10:37:00,75.0,66.6,29.99,ESE,122,1.0,4.0,75,0.00,,,0.00,meteohub,2013-06-02 14:37:00,
2013-06-02 10:42:00,75.4,66.9,29.99,SW,230,0.0,4.0,75,0.00,,,0.00,meteohub,2013-06-02 14:42:00,
2013-06-02 10:47:00,75.6,67.1,29.99,ESE,116,0.0,4.0,75,0.00,,,0.00,meteohub,2013-06-02 14:47:00,
2013-06-02 10:52:00,75.6,67.1,29.99,ESE,116,2.0,3.0,75,0.00,,,0.00,meteohub,2013-06-02 14:52:00,
2013-06-02 10:57:00,75.9,66.6,29.99,ENE,58,0.0,3.0,73,0.00,,,0.00,meteohub,2013-06-02 14:57:00,
2013-06-02 11:02:00,76.3,66.6,29.99,SSW,210,2.0,3.0,72,0.00,,,0.00,meteohub,2013-06-02 15:02:00,
2013-06-02 11:07:00,76.5,66.4,29.99,WNW,284,0.0,3.0,71,0.00,,,0.00,meteohub,2013-06-02 15:07:00,
2013-06-02 11:12:00,76.6,66.9,29.99,SE,141,0.0,4.0,72,0.00,,,0.00,meteohub,2013-06-02 15:12:00,
2013-06-02 11:17:00,77.0,66.4,29.99,WSW,238,1.0,4.0,70,0.00,,,0.00,meteohub,2013-06-02 15:17:00,
2013-06-02 11:22:00,77.2,66.6,29.99,ESE,115,1.0,3.0,70,0.00,,,0.00,meteohub,2013-06-02 15:22:00,
2013-06-02 11:27:00,77.4,66.0,29.99,South,181,2.0,3.0,68,0.00,,,0.00,meteohub,2013-06-02 15:27:00,
2013-06-02 11:32:00,77.7,66.4,29.99,South,182,0.0,5.0,68,0.00,,,0.00,meteohub,2013-06-02 15:32:00,
2013-06-02 11:37:00,77.9,66.6,29.99,SSW,199,0.0,5.0,68,0.00,,,0.00,meteohub,2013-06-02 15:37:00,
2013-06-02 11:42:00,78.3,66.0,29.99,NNE,19,1.0,5.0,66,0.00,,,0.00,meteohub,2013-06-02 15:42:00,
2013-06-02 11:47:00,78.4,66.6,29.99,ESE,117,1.0,5.0,67,0.00,,,0.00,meteohub,2013-06-02 15:47:00,
2013-06-02 11:52:00,78.6,66.7,29.99,NW,313,3.0,4.0,67,0.00,,,0.00,meteohub,2013-06-02 15:52:00,
2013-06-02 11:57:00,79.0,66.2,29.99,SW,236,0.0,5.0,65,0.00,,,0.00,meteohub,2013-06-02 15:57:00,
2013-06-02 12:02:00,79.2,66.4,29.99,NNW,330,3.0,5.0,65,0.00,,,0.00,meteohub,2013-06-02 16:02:00,
2013-06-02 12:07:00,79.2,66.7,29.99,West,281,0.0,5.0,66,0.00,,,0.00,meteohub,2013-06-02 16:07:00,
2013-06-02 12:12:00,79.3,66.6,29.99,WNW,282,1.0,5.0,65,0.00,,,0.00,meteohub,2013-06-02 16:12:00,
2013-06-02 12:17:00,79.5,67.1,29.99,South,182,1.0,5.0,66,0.00,,,0.00,meteohub,2013-06-02 16:17:00,
2013-06-02 12:22:00,79.9,67.1,29.99,NW,321,0.0,4.0,65,0.00,,,0.00,meteohub,2013-06-02 16:22:00,
2013-06-02 12:27:00,80.2,67.8,29.99,SSW,207,0.0,4.0,66,0.00,,,0.00,meteohub,2013-06-02 16:27:00,
2013-06-02 12:32:00,80.2,66.9,29.99,SE,134,0.0,5.0,64,0.00,,,0.00,meteohub,2013-06-02 16:32:00,
2013-06-02 12:37:00,80.4,67.1,29.99,East,99,1.0,5.0,64,0.00,,,0.00,meteohub,2013-06-02 16:37:00,
2013-06-02 12:42:00,80.4,67.1,29.99,SSE,147,2.0,5.0,64,0.00,,,0.00,meteohub,2013-06-02 16:42:00,
2013-06-02 12:47:00,80.6,67.3,29.99,SSW,207,0.0,4.0,64,0.00,,,0.00,meteohub,2013-06-02 16:47:00,
2013-06-02 12:52:00,81.0,67.6,29.99,SE,143,1.0,3.0,64,0.00,,,0.00,meteohub,2013-06-02 16:52:00,
2013-06-02 12:57:00,81.3,68.0,29.99,West,259,4.0,4.0,64,0.00,,,0.00,meteohub,2013-06-02 16:57:00,
2013-06-02 13:02:00,81.9,68.0,29.98,East,83,0.0,4.0,63,0.00,,,0.00,meteohub,2013-06-02 17:02:00,
2013-06-02 13:07:00,82.4,67.6,29.99,SSW,196,2.0,4.0,61,0.00,,,0.00,meteohub,2013-06-02 17:07:00,
2013-06-02 13:12:00,82.8,66.9,29.99,WSW,251,0.0,4.0,59,0.00,,,0.00,meteohub,2013-06-02 17:12:00,
2013-06-02 13:17:00,82.9,67.1,29.98,ENE,63,1.0,4.0,59,0.00,,,0.00,meteohub,2013-06-02 17:17:00,
2013-06-02 13:22:00,83.3,66.9,29.98,West,264,0.0,4.0,58,0.00,,,0.00,meteohub,2013-06-02 17:22:00,
2013-06-02 13:27:00,83.5,68.2,29.98,East,82,0.0,4.0,60,0.00,,,0.00,meteohub,2013-06-02 17:27:00,
2013-06-02 13:32:00,83.5,67.1,29.98,ENE,64,1.0,5.0,58,0.00,,,0.00,meteohub,2013-06-02 17:32:00,
2013-06-02 13:37:00,83.1,66.7,29.98,West,271,1.0,5.0,58,0.00,,,0.00,meteohub,2013-06-02 17:37:00,
2013-06-02 13:43:00,83.5,68.2,29.98,SW,232,0.0,5.0,60,0.00,,,0.00,meteohub,2013-06-02 17:43:00,
2013-06-02 13:48:00,83.7,67.3,29.97,ESE,104,1.0,5.0,58,0.00,,,0.00,meteohub,2013-06-02 17:48:00,
2013-06-02 13:53:00,83.7,67.3,29.97,SSE,155,2.0,5.0,58,0.00,,,0.00,meteohub,2013-06-02 17:53:00,
2013-06-02 13:58:00,83.7,68.4,29.97,SW,221,1.0,5.0,60,0.00,,,0.00,meteohub,2013-06-02 17:58:00,
2013-06-02 14:03:00,83.1,67.3,29.98,SSE,163,0.0,5.0,59,0.00,,,0.00,meteohub,2013-06-02 18:03:00,
2013-06-02 14:09:00,82.9,68.2,29.98,SW,227,1.0,4.0,61,0.00,,,0.00,meteohub,2013-06-02 18:09:00,
2013-06-02 14:14:00,82.6,68.2,29.97,SW,223,0.0,3.0,62,0.00,,,0.00,meteohub,2013-06-02 18:14:00,
2013-06-02 14:19:00,82.6,68.2,29.97,SSW,209,2.0,3.0,62,0.00,,,0.00,meteohub,2013-06-02 18:19:00,
2013-06-02 14:24:00,82.6,67.8,29.97,NW,313,3.0,3.0,61,0.00,,,0.00,meteohub,2013-06-02 18:24:00,
2013-06-02 14:29:00,82.8,68.0,29.97,ESE,103,1.0,3.0,61,0.00,,,0.00,meteohub,2013-06-02 18:29:00,
2013-06-02 14:34:00,82.8,66.9,29.97,West,269,1.0,3.0,59,0.00,,,0.00,meteohub,2013-06-02 18:34:00,
2013-06-02 14:40:00,82.6,66.7,29.97,ENE,73,0.0,4.0,59,0.00,,,0.00,meteohub,2013-06-02 18:40:00,
2013-06-02 14:45:00,82.6,67.3,29.97,North,5,1.0,4.0,60,0.00,,,0.00,meteohub,2013-06-02 18:45:00,
2013-06-02 14:50:00,82.6,67.8,29.96,East,91,1.0,3.0,61,0.00,,,0.00,meteohub,2013-06-02 18:50:00,
2013-06-02 14:55:00,82.6,67.3,29.96,ESE,115,0.0,3.0,60,0.00,,,0.00,meteohub,2013-06-02 18:55:00,
2013-06-02 15:00:00,82.9,68.2,29.96,NW,323,2.0,2.0,61,0.00,,,0.00,meteohub,2013-06-02 19:00:00,
2013-06-02 15:06:00,82.9,67.1,29.96,ESE,109,0.0,4.0,59,0.00,,,0.00,meteohub,2013-06-02 19:06:00,
2013-06-02 15:11:00,83.1,68.4,29.95,SSE,162,1.0,4.0,61,0.00,,,0.00,meteohub,2013-06-02 19:11:00,
2013-06-02 15:16:00,83.5,68.2,29.95,SSE,149,1.0,3.0,60,0.00,,,0.00,meteohub,2013-06-02 19:16:00,
2013-06-02 15:21:00,83.7,67.3,29.94,West,266,0.0,2.0,58,0.00,,,0.00,meteohub,2013-06-02 19:21:00,
2013-06-02 15:27:00,83.5,66.6,29.94,ESE,123,1.0,4.0,57,0.00,,,0.00,meteohub,2013-06-02 19:27:00,
2013-06-02 15:32:00,83.5,67.6,29.94,East,90,0.0,4.0,59,0.00,,,0.00,meteohub,2013-06-02 19:32:00,
2013-06-02 15:37:00,83.7,67.8,29.94,SE,127,1.0,4.0,59,0.00,,,0.00,meteohub,2013-06-02 19:37:00,
2013-06-02 15:42:00,83.5,67.1,29.94,ENE,63,1.0,3.0,58,0.00,,,0.00,meteohub,2013-06-02 19:42:00,
2013-06-02 15:47:00,83.3,67.5,29.94,SSE,157,0.0,2.0,59,0.00,,,0.00,meteohub,2013-06-02 19:47:00,
2013-06-02 15:52:00,83.3,66.9,29.94,West,264,0.0,2.0,58,0.00,,,0.00,meteohub,2013-06-02 19:52:00,
2013-06-02 15:57:00,83.1,66.7,29.94,WSW,238,0.0,3.0,58,0.00,,,0.00,meteohub,2013-06-02 19:57:00,
2013-06-02 16:02:00,83.5,68.2,29.93,WSW,239,0.0,3.0,60,0.00,,,0.00,meteohub,2013-06-02 20:02:00,
2013-06-02 16:07:00,83.3,66.9,29.93,SE,137,0.0,3.0,58,0.00,,,0.00,meteohub,2013-06-02 20:07:00,
2013-06-02 16:12:00,83.1,67.3,29.93,SE,128,1.0,3.0,59,0.00,,,0.00,meteohub,2013-06-02 20:12:00,
2013-06-02 16:17:00,82.9,67.6,29.93,SE,128,1.0,3.0,60,0.00,,,0.00,meteohub,2013-06-02 20:17:00,
2013-06-02 16:22:00,82.9,67.6,29.93,SE,128,0.0,3.0,60,0.00,,,0.00,meteohub,2013-06-02 20:22:00,
2013-06-02 16:27:00,83.1,68.4,29.92,South,190,0.0,2.0,61,0.00,,,0.00,meteohub,2013-06-02 20:27:00,
2013-06-02 16:32:00,83.7,67.8,29.92,SSE,153,0.0,2.0,59,0.00,,,0.00,meteohub,2013-06-02 20:32:00,
2013-06-02 16:37:00,83.8,68.0,29.92,ESE,117,2.0,2.0,59,0.00,,,0.00,meteohub,2013-06-02 20:37:00,
2013-06-02 16:42:00,83.7,66.7,29.92,SSE,155,0.0,3.0,57,0.00,,,0.00,meteohub,2013-06-02 20:42:00,
2013-06-02 16:47:00,83.8,66.9,29.91,WNW,292,0.0,3.0,57,0.00,,,0.00,meteohub,2013-06-02 20:47:00,
2013-06-02 16:52:00,84.0,67.1,29.92,South,186,0.0,3.0,57,0.00,,,0.00,meteohub,2013-06-02 20:52:00,
2013-06-02 16:57:00,84.0,66.6,29.91,SSW,213,0.0,3.0,56,0.00,,,0.00,meteohub,2013-06-02 20:57:00,
2013-06-02 17:02:00,84.2,66.7,29.91,South,174,0.0,3.0,56,0.00,,,0.00,meteohub,2013-06-02 21:02:00,
2013-06-02 17:07:00,84.0,66.6,29.91,East,94,1.0,3.0,56,0.00,,,0.00,meteohub,2013-06-02 21:07:00,
2013-06-02 17:12:00,83.8,66.9,29.91,East,94,0.0,3.0,57,0.00,,,0.00,meteohub,2013-06-02 21:12:00,
2013-06-02 17:17:00,83.7,67.8,29.91,ESE,108,1.0,2.0,59,0.00,,,0.00,meteohub,2013-06-02 21:17:00,
2013-06-02 17:22:00,83.5,67.1,29.91,ESE,108,0.0,2.0,58,0.00,,,0.00,meteohub,2013-06-02 21:22:00,
2013-06-02 17:27:00,83.5,67.6,29.91,ESE,108,0.0,1.0,59,0.00,,,0.00,meteohub,2013-06-02 21:27:00,
2013-06-02 17:33:00,83.3,68.0,29.91,ESE,107,0.0,1.0,60,0.00,,,0.00,meteohub,2013-06-02 21:33:00,
2013-06-02 17:38:00,83.1,67.3,29.91,ESE,107,0.0,1.0,59,0.00,,,0.00,meteohub,2013-06-02 21:38:00,
2013-06-02 17:43:00,82.9,67.6,29.91,SSW,207,0.0,1.0,60,0.00,,,0.00,meteohub,2013-06-02 21:43:00,
2013-06-02 17:48:00,82.9,68.2,29.91,SSW,207,0.0,2.0,61,0.00,,,0.00,meteohub,2013-06-02 21:48:00,
2013-06-02 17:54:00,82.8,68.0,29.91,SSW,207,0.0,2.0,61,0.00,,,0.00,meteohub,2013-06-02 21:54:00,
2013-06-02 17:59:00,82.8,68.4,29.91,SSW,207,0.0,0.0,62,0.00,,,0.00,meteohub,2013-06-02 21:59:00,
2013-06-02 18:04:00,82.6,68.2,29.91,SSW,207,0.0,0.0,62,0.00,,,0.00,meteohub,2013-06-02 22:04:00,
2013-06-02 18:09:00,82.4,68.5,29.91,SSW,207,0.0,0.0,63,0.00,,,0.00,meteohub,2013-06-02 22:09:00,
2013-06-02 18:14:00,82.2,68.4,29.91,SSW,207,0.0,0.0,63,0.00,,,0.00,meteohub,2013-06-02 22:14:00,
2013-06-02 18:20:00,82.2,68.4,29.90,SSW,207,0.0,0.0,63,0.00,,,0.00,meteohub,2013-06-02 22:20:00,
2013-06-02 18:25:00,82.2,68.9,29.90,SSW,208,0.0,1.0,64,0.00,,,0.00,meteohub,2013-06-02 22:25:00,
2013-06-02 18:30:00,82.0,68.7,29.90,SSW,208,0.0,1.0,64,0.00,,,0.00,meteohub,2013-06-02 22:30:00,
2013-06-02 18:35:00,81.9,68.0,29.90,SSW,208,0.0,1.0,63,0.00,,,0.00,meteohub,2013-06-02 22:35:00,
2013-06-02 18:40:00,81.7,68.4,29.90,SSW,208,0.0,0.0,64,0.00,,,0.00,meteohub,2013-06-02 22:40:00,
2013-06-02 18:46:00,81.3,68.0,29.90,SSW,208,0.0,0.0,64,0.00,,,0.00,meteohub,2013-06-02 22:46:00,
2013-06-02 18:51:00,81.1,67.8,29.91,SSW,208,0.0,0.0,64,0.00,,,0.00,meteohub,2013-06-02 22:51:00,
2013-06-02 18:56:00,81.1,67.8,29.90,SSW,208,0.0,0.0,64,0.00,,,0.00,meteohub,2013-06-02 22:56:00,
2013-06-02 19:01:00,80.8,68.4,29.91,SSW,208,0.0,0.0,66,0.00,,,0.00,meteohub,2013-06-02 23:01:00,
2013-06-02 19:06:00,80.6,68.2,29.91,SSW,208,0.0,0.0,66,0.00,,,0.00,meteohub,2013-06-02 23:06:00,
2013-06-02 19:12:00,80.6,68.5,29.91,SSW,208,0.0,0.0,67,0.00,,,0.00,meteohub,2013-06-02 23:12:00,
2013-06-02 19:17:00,80.4,68.5,29.91,SSW,208,0.0,0.0,67,0.00,,,0.00,meteohub,2013-06-02 23:17:00,
2013-06-02 19:22:00,80.4,68.5,29.91,SSW,208,0.0,0.0,67,0.00,,,0.00,meteohub,2013-06-02 23:22:00,
2013-06-02 19:27:00,80.2,68.4,29.91,SSW,208,0.0,0.0,67,0.00,,,0.00,meteohub,2013-06-02 23:27:00,
2013-06-02 19:32:00,80.1,68.5,29.91,SSW,208,0.0,0.0,68,0.00,,,0.00,meteohub,2013-06-02 23:32:00,
2013-06-02 19:37:00,80.1,68.2,29.91,SSW,208,0.0,0.0,67,0.00,,,0.00,meteohub,2013-06-02 23:37:00,
2013-06-02 19:42:00,79.9,68.4,29.91,SSW,208,0.0,0.0,68,0.00,,,0.00,meteohub,2013-06-02 23:42:00,
2013-06-02 19:47:00,79.9,68.7,29.92,SSW,208,0.0,0.0,69,0.00,,,0.00,meteohub,2013-06-02 23:47:00,
2013-06-02 19:52:00,79.5,68.5,29.92,SSW,208,0.0,0.0,69,0.00,,,0.00,meteohub,2013-06-02 23:52:00,
2013-06-02 19:57:00,79.5,68.9,29.92,SSW,208,0.0,0.0,70,0.00,,,0.00,meteohub,2013-06-02 23:57:00,
2013-06-02 20:02:00,79.3,68.7,29.92,SSW,208,0.0,0.0,70,0.00,,,0.00,meteohub,2013-06-03 00:02:00,
2013-06-02 20:07:00,79.2,68.9,29.92,SSW,208,0.0,0.0,71,0.00,,,0.00,meteohub,2013-06-03 00:07:00,
2013-06-02 20:12:00,79.0,69.3,29.92,SSW,208,0.0,0.0,72,0.00,,,0.00,meteohub,2013-06-03 00:12:00,
2013-06-02 20:17:00,78.6,68.9,29.92,SSW,208,0.0,0.0,72,0.00,,,0.00,meteohub,2013-06-03 00:17:00,
2013-06-02 20:22:00,78.4,69.1,29.92,NW,317,2.0,0.0,73,0.00,,,0.00,meteohub,2013-06-03 00:22:00,
2013-06-02 20:27:00,77.7,68.7,29.92,NW,315,1.0,5.0,74,0.00,,,0.00,meteohub,2013-06-03 00:27:00,
2013-06-02 20:32:00,77.4,69.3,29.92,WNW,287,1.0,5.0,76,0.00,,,0.00,meteohub,2013-06-03 00:32:00,
2013-06-02 20:37:00,77.2,68.7,29.92,NW,315,3.0,5.0,75,0.00,,,0.00,meteohub,2013-06-03 00:37:00,
2013-06-02 20:42:00,76.8,68.4,29.92,NW,317,3.0,4.0,75,0.00,,,0.00,meteohub,2013-06-03 00:42:00,
2013-06-02 20:47:00,76.6,68.5,29.92,NW,317,1.0,3.0,76,0.00,,,0.00,meteohub,2013-06-03 00:47:00,
2013-06-02 20:52:00,76.5,68.4,29.92,NW,317,0.0,3.0,76,0.00,,,0.00,meteohub,2013-06-03 00:52:00,
2013-06-02 20:57:00,76.3,68.2,29.92,NW,317,0.0,3.0,76,0.00,,,0.00,meteohub,2013-06-03 00:57:00,
2013-06-02 21:02:00,76.1,68.4,29.92,NW,317,0.0,2.0,77,0.00,,,0.00,meteohub,2013-06-03 01:02:00,
2013-06-02 21:07:00,75.9,68.2,29.92,NW,317,0.0,0.0,77,0.00,,,0.00,meteohub,2013-06-03 01:07:00,
2013-06-02 21:12:00,75.9,68.2,29.92,NW,317,0.0,0.0,77,0.00,,,0.00,meteohub,2013-06-03 01:12:00,
2013-06-02 21:17:00,75.7,68.0,29.92,NW,317,0.0,0.0,77,0.00,,,0.00,meteohub,2013-06-03 01:17:00,
2013-06-02 21:22:00,75.6,68.2,29.92,NW,317,0.0,0.0,78,0.00,,,0.00,meteohub,2013-06-03 01:22:00,
2013-06-02 21:27:00,75.6,68.5,29.92,NW,317,0.0,0.0,79,0.00,,,0.00,meteohub,2013-06-03 01:27:00,
2013-06-02 21:32:00,75.2,68.2,29.92,NNE,16,1.0,3.0,79,0.00,,,0.00,meteohub,2013-06-03 01:32:00,
2013-06-02 21:37:00,74.7,69.1,29.93,ESE,115,2.0,3.0,83,0.00,,,0.00,meteohub,2013-06-03 01:37:00,
2013-06-02 21:42:00,74.1,69.3,29.92,ESE,112,0.0,3.0,85,0.00,,,0.00,meteohub,2013-06-03 01:42:00,
2013-06-02 21:47:00,73.9,69.4,29.91,SW,221,0.0,3.0,86,0.00,,,0.00,meteohub,2013-06-03 01:47:00,
2013-06-02 21:52:00,73.8,69.6,29.91,West,259,0.0,3.0,87,0.01,,,0.01,meteohub,2013-06-03 01:52:00,
2013-06-02 21:57:00,73.2,69.8,29.91,WNW,296,0.0,2.0,89,0.01,,,0.01,meteohub,2013-06-03 01:57:00,
2013-06-02 22:02:00,72.9,69.8,29.91,WNW,296,1.0,2.0,90,0.02,,,0.02,meteohub,2013-06-03 02:02:00,
2013-06-02 22:07:00,72.7,70.0,29.91,WNW,296,0.0,2.0,91,0.03,,,0.03,meteohub,2013-06-03 02:07:00,
2013-06-02 22:12:00,72.3,69.6,29.91,WNW,296,0.0,2.0,91,0.04,,,0.04,meteohub,2013-06-03 02:12:00,
2013-06-02 22:17:00,72.1,69.6,29.92,WNW,296,0.0,2.0,92,0.05,,,0.05,meteohub,2013-06-03 02:17:00,
2013-06-02 22:22:00,72.0,69.4,29.92,SW,228,0.0,2.0,92,0.07,,,0.07,meteohub,2013-06-03 02:22:00,
2013-06-02 22:27:00,71.8,69.6,29.92,South,178,0.0,2.0,93,0.08,,,0.08,meteohub,2013-06-03 02:27:00,
2013-06-02 22:32:00,71.8,69.6,29.93,South,178,0.0,2.0,93,0.10,,,0.10,meteohub,2013-06-03 02:32:00,
2013-06-02 22:37:00,71.4,69.6,29.93,SSW,209,1.0,2.0,94,0.11,,,0.11,meteohub,2013-06-03 02:37:00,
2013-06-02 22:42:00,71.4,69.6,29.94,SSW,211,0.0,2.0,94,0.13,,,0.13,meteohub,2013-06-03 02:42:00,
2013-06-02 22:47:00,71.4,69.6,29.94,SSW,211,0.0,2.0,94,0.14,,,0.14,meteohub,2013-06-03 02:47:00,
2013-06-02 22:52:00,71.2,69.4,29.94,SSW,211,0.0,2.0,94,0.15,,,0.16,meteohub,2013-06-03 02:52:00,
2013-06-02 22:57:00,71.2,69.4,29.94,NNE,28,0.0,0.0,94,0.18,,,0.19,meteohub,2013-06-03 02:57:00,
2013-06-02 23:02:00,71.2,69.4,29.94,NNE,26,0.0,3.0,94,0.18,,,0.20,meteohub,2013-06-03 03:02:00,
2013-06-02 23:07:00,71.2,69.8,29.94,NNE,26,1.0,3.0,95,0.19,,,0.22,meteohub,2013-06-03 03:07:00,
2013-06-02 23:12:00,71.2,69.8,29.95,NNE,26,0.0,3.0,95,0.19,,,0.24,meteohub,2013-06-03 03:12:00,
2013-06-02 23:17:00,71.2,69.8,29.95,NNE,26,0.0,1.0,95,0.20,,,0.26,meteohub,2013-06-03 03:17:00,
2013-06-02 23:22:00,71.2,69.8,29.95,NNE,26,0.0,1.0,95,0.22,,,0.29,meteohub,2013-06-03 03:22:00,
2013-06-02 23:27:00,71.2,69.8,29.95,NNE,26,0.0,1.0,95,0.21,,,0.30,meteohub,2013-06-03 03:27:00,
2013-06-02 23:32:00,71.2,69.8,29.95,NNE,26,0.0,0.0,95,0.22,,,0.32,meteohub,2013-06-03 03:32:00,
2013-06-02 23:37:00,71.2,69.8,29.95,NNE,26,1.0,0.0,95,0.21,,,0.33,meteohub,2013-06-03 03:37:00,
2013-06-02 23:42:00,71.1,69.6,29.95,NNE,26,0.0,1.0,95,0.22,,,0.35,meteohub,2013-06-03 03:42:00,
2013-06-02 23:47:00,71.1,69.6,29.95,NNE,26,0.0,1.0,95,0.21,,,0.36,meteohub,2013-06-03 03:47:00,
2013-06-02 23:52:00,71.1,69.6,29.95,NNE,26,0.0,1.0,95,0.20,,,0.37,meteohub,2013-06-03 03:52:00,
2013-06-02 23:57:00,70.9,69.4,29.95,NNE,26,0.0,0.0,95,0.18,,,0.37,meteohub,2013-06-03 03:57:00,